Kuchera_Ratio
0.0 0.0 0.0 0.0 0.0 0.0 0.0 0.0 0.0 0.0 0.0 0.0 0.0 0.0 0.0 0.0 0.0 0.0 0.0 0.0 0.0 0.0 0.0 0.0 0.0 0.0 0.0 0.0 0.0 0.0 0.0 0.0 0.0 0.0 0.0 0.0 0.0 0.0 0.0 0.0 0.0 0.0 0.0 0.0 0.0 0.0 0.0 0.0 0.0 0.0 0.0 0.0
0.0 0.0 0.0 0.0 0.0 0.0 0.0 0.0 0.0 0.0 0.0 0.0 0.0 0.0 0.0 0.0 0.0 0.0 0.0 0.0 0.0 0.0 0.0 0.0 0.0 0.0 0.0 0.0 0.0 0.0 0.0 0.0 0.0 0.0 0.0 0.0 0.0 0.0 0.0 0.0 0.0 0.0 0.0 0.0 0.0 0.0 0.0 0.0 0.0 0.0 0.0 0.0
0.0 0.0 0.0 0.0 0.0 0.0 0.0 0.0 0.0 0.0 0.0 0.0 0.0 0.0 0.0 0.0 0.0 0.0 0.0 0.0 0.0 0.0 0.0 0.0 0.0 0.0 0.0 0.0 0.0 0.0 0.0 0.0 0.0 0.0 0.0 0.0 0.0 0.0 0.0 0.0 0.0 0.0 0.0 0.0 0.0 0.0 0.0 0.0 0.0 0.0 0.0 0.0
0.0 0.0 0.0 0.0 0.0 0.0 0.0 0.0 0.0 0.0 0.0 0.0 0.0 0.0 0.0 0.0 0.0 0.0 0.0 0.0 0.0 0.0 0.0 0.0 0.0 0.0 0.0 0.0 0.0 0.0 0.0 0.0 0.0 0.0 0.0 0.0 0.0 0.0 0.0 0.0 0.0 0.0 0.0 0.0 0.0 0.0 0.0 0.0 0.0 0.0 0.0 0.0
0.0 0.0 0.0 0.0 0.0 0.0 0.0 0.0 0.0 0.0 0.0 0.0 0.0 0.0 0.0 0.0 0.0 0.0 0.0 0.0 0.0 0.0 0.0 0.0 0.0 0.0 0.0 0.0 0.0 0.0 0.0 0.0 0.0 0.0 0.0 0.0 0.0 0.0 0.0 0.0 0.0 0.0 0.0 0.0 0.0 0.0 0.0 0.0 0.0 0.0 0.0 0.0
0.0 0.0 0.0 0.0 0.0 0.0 0.0 0.0 0.0 0.0 0.0 0.0 0.0 0.0 0.0 0.0 0.0 0.0 0.0 0.0 0.0 0.0 0.0 0.0 0.0 0.0 0.0 0.0 0.0 0.0 0.0 0.0 0.0 0.0 0.0 0.0 0.0 0.0 0.0 0.0 0.0 0.0 0.0 0.0 0.0 0.0 0.0 0.0 0.0 0.0 0.0 0.0
0.0 0.0 0.0 0.0 0.0 0.0 0.0 0.0 0.0 0.0 0.0 0.0 0.0 0.0 0.0 0.0 0.0 0.0 0.0 0.0 0.0 0.0 0.0 0.0 0.0 0.0 0.0 0.0 0.0 0.0 0.0 0.0 0.0 0.0 0.0 0.0 0.0 0.0 0.0 0.0 0.0 0.0 0.0 0.0 0.0 0.0 0.0 0.0 0.0 0.0 0.0 0.0
0.0 0.0 0.0 0.0 0.0 0.0 0.0 0.0 0.0 0.0 0.0 0.0 0.0 0.0 0.0 0.0 0.0 0.0 0.0 0.0 0.0 0.0 0.0 0.0 0.0 0.0 0.0 0.0 0.0 0.0 0.0 0.0 0.0 0.0 0.0 0.0 0.0 0.0 0.0 0.0 0.0 0.0 0.0 0.0 0.0 0.0 0.0 0.0 0.0 0.0 0.0 0.0
0.0 0.0 0.0 0.0 0.0 0.0 0.0 0.0 0.0 0.0 0.0 0.0 0.0 0.0 0.0 0.0 0.0 0.0 0.0 0.0 0.0 0.0 0.0 0.0 0.0 0.0 0.0 0.0 0.0 0.0 0.0 0.0 0.0 0.0 0.0 0.0 0.0 0.0 0.0 0.0 0.0 0.0 0.0 0.0 0.0 0.0 0.0 0.0 0.0 0.0 0.0 0.0
0.0 0.0 0.0 0.0 0.0 0.0 0.0 0.0 0.0 0.0 0.0 0.0 0.0 0.0 0.0 0.0 0.0 0.0 0.0 0.0 0.0 0.0 0.0 0.0 0.0 0.0 0.0 0.0 0.0 0.0 0.0 0.0 0.0 0.0 0.0 0.0 0.0 0.0 0.0 0.0 0.0 0.0 0.0 0.0 0.0 0.0 0.0 0.0 0.0 0.0 0.0 0.0
0.0 0.0 0.0 0.0 0.0 0.0 0.0 0.0 0.0 0.0 0.0 0.0 0.0 0.0 0.0 0.0 0.0 0.0 0.0 0.0 0.0 0.0 0.0 0.0 0.0 0.0 0.0 0.0 0.0 0.0 0.0 0.0 0.0 0.0 0.0 0.0 0.0 0.0 0.0 0.0 0.0 0.0 0.0 0.0 0.0 0.0 0.0 0.0 0.0 0.0 0.0 0.0
0.0 0.0 0.0 0.0 0.0 0.0 0.0 0.0 0.0 0.0 0.0 0.0 0.0 0.0 0.0 0.0 0.0 0.0 0.0 0.0 0.0 0.0 0.0 0.0 0.0 0.0 0.0 0.0 0.0 0.0 0.0 0.0 0.0 0.0 0.0 0.0 0.0 0.0 0.0 0.0 0.0 0.0 0.0 0.0 0.0 0.0 0.0 0.0 0.0 0.0 0.0 0.0
0.0 0.0 0.0 0.0 0.0 0.0 0.0 0.0 0.0 0.0 0.0 0.0 0.0 0.0 0.0 0.0 0.0 0.0 0.0 0.0 0.0 0.0 0.0 0.0 0.0 0.0 0.0 0.0 0.0 0.0 0.0 0.0 0.0 0.0 0.0 0.0 0.0 0.0 0.0 0.0 0.0 0.0 0.0 0.0 0.0 0.0 0.0 0.0 0.0 0.0 0.0 0.0
0.0 0.0 0.0 0.0 0.0 0.0 0.0 0.0 0.0 0.0 0.0 0.0 0.0 0.0 0.0 0.0 0.0 0.0 0.0 0.0 0.0 0.0 0.0 0.0 0.0 0.0 0.0 0.0 0.0 0.0 0.0 0.0 0.0 0.0 0.0 0.0 0.0 0.0 0.0 0.0 0.0 0.0 0.0 0.0 0.0 0.0 0.0 0.0 0.0 0.0 0.0 0.0
0.0 0.0 0.0 0.0 0.0 0.0 0.0 0.0 0.0 0.0 0.0 0.0 0.0 0.0 0.0 0.0 0.0 0.0 0.0 0.0 0.0 0.0 0.0 0.0 0.0 0.0 0.0 0.0 0.0 0.0 0.0 0.0 0.0 0.0 0.0 0.0 0.0 0.0 0.0 0.0 0.0 0.0 0.0 0.0 0.0 0.0 0.0 0.0 0.0 0.0 0.0 0.0
0.0 0.0 0.0 0.0 0.0 0.0 0.0 0.0 0.0 0.0 0.0 0.0 0.0 0.0 0.0 0.0 0.0 0.0 0.0 0.0 0.0 0.0 0.0 0.0 0.0 0.0 0.0 0.0 0.0 0.0 0.0 0.0 0.0 0.0 0.0 0.0 0.0 0.0 0.0 0.0 0.0 0.0 0.0 0.0 0.0 0.0 0.0 0.0 0.0 0.0 0.0 0.0
0.0 0.0 0.0 0.0 0.0 0.0 0.0 0.0 0.0 0.1 0.0 0.0 0.0 0.0 0.0 0.0 0.0 0.0 0.0 0.0 0.0 0.0 0.0 0.0 0.2 0.0 0.0 0.0 0.0 0.0 0.0 0.0 0.0 0.0 0.0 0.0 0.0 0.0 0.0 0.0 0.0 0.0 0.0 0.0 0.0 0.0 0.0 0.0 0.0 0.0 0.0 0.0
0.0 0.0 0.0 0.0 0.0 0.0 0.0 0.0 0.3 0.7 0.0 0.0 0.0 0.0 0.0 0.0 0.0 0.0 0.0 0.0 0.0 0.0 0.0 0.5 1.1 1.9 0.4 0.0 0.0 0.0 0.0 0.0 0.0 0.0 0.0 0.0 0.0 0.0 0.0 0.0 0.0 0.0 0.0 0.0 0.0 0.0 0.0 0.0 0.0 0.0 0.0 0.0
0.0 0.1 0.4 0.5 0.4 0.0 0.0 0.8 1.2 1.2 0.6 0.3 0.0 0.0 0.0 0.0 0.0 0.0 0.0 0.0 0.0 0.0 0.1 1.4 1.4 1.6 0.1 0.0 0.0 0.0 0.0 0.5 1.1 0.0 0.4 0.0 0.0 0.0 0.0 0.0 0.0 0.0 0.0 0.0 0.0 0.0 0.0 0.0 0.0 0.0 0.0 0.0
0.7 1.1 1.4 1.2 0.8 0.5 1.1 1.7 1.9 1.4 0.7 0.9 0.5 0.4 0.4 0.0 0.0 0.0 0.0 0.0 0.2 1.1 1.3 2.0 2.2 0.9 0.0 0.0 0.0 0.0 1.0 1.9 3.0 2.7 2.2 0.0 0.4 0.0 0.0 0.0 0.0 0.2 0.0 0.0 0.0 0.0 0.0 0.0 0.0 0.0 0.0 0.0
1.3 1.7 2.2 2.4 2.2 2.1 2.2 2.4 2.4 1.6 0.7 1.1 0.9 0.9 1.2 0.6 0.4 0.0 0.0 0.0 0.2 2.1 2.4 2.3 2.8 1.4 0.0 0.0 0.0 2.1 3.2 2.6 2.7 3.7 3.6 3.0 2.6 0.7 1.0 0.7 0.9 1.2 1.2 0.2 0.0 0.0 0.0 0.0 0.0 0.0 0.0 0.0
1.8 2.1 2.9 3.3 3.7 3.8 3.5 3.0 2.4 1.8 1.7 2.1 1.7 1.8 2.0 1.4 1.2 0.8 0.5 0.4 0.7 2.2 2.6 2.3 2.6 2.1 0.9 0.1 1.8 3.9 1.7 4.0 3.2 3.2 4.1 4.0 3.5 3.0 2.6 2.0 1.5 1.7 1.0 0.0 0.0 0.0 0.0 0.0 0.0 0.0 0.0 0.0
2.7 2.8 3.1 3.2 3.9 4.4 4.1 3.4 2.7 2.4 2.9 3.0 2.6 2.7 2.4 1.9 2.3 2.0 1.4 1.4 1.6 2.5 3.2 3.3 3.6 3.3 2.1 2.2 4.0 2.7 4.8 4.7 4.4 4.2 4.2 4.4 4.2 3.8 3.4 3.0 2.5 1.9 0.7 0.0 0.0 0.0 0.7 0.0 0.0 0.0 0.0 0.0
5.0 4.9 5.5 6.2 5.4 6.4 4.5 2.9 2.9 3.0 3.6 3.7 3.5 3.2 2.6 2.7 2.9 2.7 2.7 2.6 2.6 3.4 4.1 4.1 4.7 4.7 3.6 4.4 4.5 6.1 5.7 5.5 5.0 4.6 4.5 4.6 4.6 4.4 4.1 3.7 3.2 2.7 2.5 1.9 1.5 0.4 0.5 1.6 1.3 0.6 0.5 0.0
7.6 9.2 8.7 8.1 8.3 8.6 7.3 6.4 3.8 5.2 4.7 4.7 3.9 3.1 2.9 3.4 3.2 3.3 3.9 3.7 3.7 4.3 4.7 5.1 5.7 5.3 5.1 6.1 4.2 6.5 6.2 6.2 6.2 5.7 4.9 4.7 4.9 5.0 5.0 4.7 3.9 3.5 2.9 3.5 3.9 2.7 2.1 2.7 3.0 2.1 2.7 2.9
8.1 8.6 9.4 9.7 9.2 7.2 7.1 8.0 8.5 9.0 7.4 4.9 4.4 3.9 3.9 4.2 3.9 4.4 5.1 4.7 4.6 4.7 5.4 6.1 5.1 3.9 8.0 6.7 7.3 7.2 6.9 6.9 7.3 6.9 5.8 5.3 5.3 5.3 5.5 5.8 4.9 4.1 3.0 5.5 4.6 3.5 3.4 4.3 5.2 5.8 4.9 4.4
9.1 8.2 7.9 8.7 8.5 7.2 8.4 7.1 6.4 5.9 6.0 6.2 6.6 6.0 5.3 5.1 4.7 5.2 5.7 5.4 5.0 4.9 5.8 6.2 4.7 8.6 6.4 7.2 8.2 8.2 8.0 8.0 8.5 8.2 7.2 6.4 5.7 5.5 5.9 6.5 6.0 4.8 4.6 5.6 4.1 3.9 3.5 7.4 7.7 5.9 7.4 5.8
8.2 7.7 7.1 7.3 7.5 7.6 9.1 9.7 6.4 7.2 7.6 7.3 7.1 11.1 6.2 5.9 5.1 5.4 6.0 5.5 5.4 5.5 6.1 6.2 5.8 6.3 6.4 9.5 7.4 9.3 9.5 9.5 9.7 9.6 9.0 8.2 6.9 6.5 7.0 7.4 6.9 5.8 5.2 4.4 5.4 8.1 6.7 5.6 5.5 6.7 7.9 5.9
9.1 8.6 9.9 9.4 8.9 8.6 9.6 9.2 10.3 11.0 11.8 10.7 9.6 8.7 11.4 5.9 5.0 5.6 6.4 5.6 5.7 6.1 6.2 6.2 6.4 7.9 7.4 11.2 7.9 11.3 11.4 10.9 10.6 10.4 10.1 9.8 8.7 7.9 7.5 7.2 7.0 7.0 6.5 5.5 3.1 5.1 6.1 9.4 9.2 7.0 3.6 3.8
9.8 11.1 12.4 12.9 13.6 14.1 13.5 13.7 12.9 13.3 12.7 11.5 11.6 10.4 6.1 6.1 5.7 6.1 6.9 6.2 5.9 6.1 6.3 6.7 6.7 8.5 8.7 11.6 11.7 11.0 12.2 11.7 11.6 11.4 10.9 10.2 10.1 9.6 8.2 7.4 8.2 8.5 6.7 6.7 4.4 3.4 3.4 4.8 9.0 7.2 7.1 4.6
11.2 12.8 12.8 13.4 13.9 14.0 14.4 14.5 13.4 11.4 10.1 10.3 8.9 8.2 8.9 7.1 7.2 7.1 7.3 6.7 6.6 6.4 6.4 7.0 7.4 8.6 9.4 8.9 9.1 8.3 11.2 12.4 12.0 11.5 11.2 9.7 10.7 10.6 8.8 9.2 10.2 9.7 8.2 8.1 6.6 4.4 4.6 4.1 4.9 6.9 8.0 8.8